EST,Max TemperatureF,Mean TemperatureF,Min TemperatureF,Max Dew PointF,MeanDew PointF,Min DewpointF,Max Humidity, Mean Humidity, Min Humidity, Max Sea Level PressureIn, Mean Sea Level PressureIn, Min Sea Level PressureIn, Max VisibilityMiles, Mean VisibilityMiles, Min VisibilityMiles, Max Wind SpeedMPH, Mean Wind SpeedMPH, Max Gust SpeedMPH,PrecipitationIn, CloudCover, Events, WindDirDegrees
2011-12-1,55,44,32,36,33,32,100,75,41,30.35,30.26,30.11,10,10,7,9,2,,0.00,0,,180
2011-12-2,62,45,28,37,32,28,100,76,30,30.47,30.41,30.37,10,10,5,5,0,,0.00,0,,180
2011-12-3,64,47,30,45,36,30,100,75,40,30.56,30.50,30.46,10,9,7,10,2,16,0.00,0,,180
2011-12-4,71,56,42,52,46,41,100,77,49,30.50,30.43,30.34,10,8,5,8,4,,0.00,5,,180
2011-12-5,71,62,53,63,58,50,100,86,64,30.33,30.25,30.19,10,8,4,10,3,17,0.01,8,Rain,66
2011-12-6,73,64,55,70,60,55,100,91,65,30.17,30.13,30.07,7,6,0,10,2,,0.00,7,Fog-Rain,171
2011-12-7,77,64,50,66,58,39,100,82,47,30.03,29.87,29.64,10,7,3,21,8,31,0.04,3,Rain,203
2011-12-8,53,43,33,39,33,28,100,73,41,30.33,30.23,30.01,10,7,4,12,3,16,0.00,0,,358
2011-12-9,62,48,33,50,42,34,100,76,59,30.30,30.25,30.20,7,7,5,9,2,,0.00,5,,10
2011-12-10,55,48,42,50,40,34,100,72,44,30.39,30.29,30.19,10,7,5,10,2,18,0.00,4,Rain,10
2011-12-11,53,42,32,34,32,30,100,71,41,30.54,30.48,30.43,10,7,5,16,5,23,0.00,0,,20
2011-12-12,50,44,37,43,37,32,100,80,66,30.51,30.44,30.39,10,10,7,8,5,,0.00,2,,7
2011-12-13,64,48,33,46,41,34,100,83,45,30.46,30.41,30.35,10,7,2,8,1,,0.00,1,,1
2011-12-14,64,50,35,43,38,34,100,75,37,30.42,30.37,30.33,10,7,4,7,1,,0.00,1,,113
2011-12-15,73,54,35,55,48,36,100,81,41,30.33,30.25,30.17,10,7,4,10,2,,0.00,1,,195
2011-12-16,75,62,50,57,54,50,100,74,47,30.21,30.16,30.10,10,8,2,12,4,20,0.00,2,,230
2011-12-17,60,48,37,55,45,37,100,79,55,30.22,30.15,30.07,10,10,10,10,4,18,0.00,3,,359
2011-12-18,51,40,30,41,32,27,100,79,38,30.40,30.30,30.20,10,9,2,12,2,18,0.00,1,,2
2011-12-19,64,46,28,45,36,28,100,79,39,30.40,30.33,30.27,10,10,10,10,1,16,0.00,0,,176
2011-12-20,71,55,39,55,48,39,100,83,50,30.27,30.22,30.16,10,10,7,12,1,,0.00,2,,197
2011-12-21,66,56,46,66,58,46,100,98,88,30.19,30.11,30.03,10,9,5,15,3,20,0.04,6,Rain,197
2011-12-22,78,69,60,64,61,59,100,82,54,30.16,30.08,30.03,10,7,4,14,5,18,0.00,6,,190
2011-12-23,73,66,59,63,57,46,83,70,53,30.22,30.08,29.96,10,7,5,13,7,20,0.00,6,,232
2011-12-24,59,50,42,43,37,34,81,61,41,30.42,30.35,30.23,10,8,5,16,6,23,0.00,0,,20
2011-12-25,55,45,35,52,43,36,100,95,72,30.41,30.34,30.20,10,8,5,7,0,,0.10,4,Rain,209
2011-12-26,55,44,33,50,38,30,100,78,38,30.35,30.28,30.20,10,8,2,15,3,18,0.01,2,,6
2011-12-27,68,52,37,66,50,37,100,81,58,30.23,29.88,29.67,10,8,5,20,6,37,0.20,5,Rain-Thunderstorm,189
2011-12-28,55,46,37,37,34,30,87,61,41,30.07,29.97,29.81,10,8,5,15,6,24,0.00,1,,261
2011-12-29,59,44,28,37,32,28,100,74,34,30.16,30.09,30.05,10,8,5,12,2,16,0.00,0,,206
2011-12-30,64,47,30,46,39,30,100,77,45,30.17,30.10,30.05,10,9,4,9,2,,0.00,1,,195
2011-12-31,68,52,37,54,43,36,100,71,30,30.18,30.06,29.99,10,7,5,12,5,17,0.00,1,,237